TIME,DELAY(SENSOR),PRES,OXYGEN,RAWTEMP,T(OPTODE),TCPHASE,FLUOR,BETA(BETA700),BETA(BETA412),BETA(BETA440),CDOM,C(CSC),ED(ED412.40),ED(ED444.00),ED(ED489.70),ED(ED554.30),LU(LU411.80),LU(LU443.40),LU(LU489.60),LU(LU554.10),COMP,TILTX,TILTY,CHECK
1377835878,5808,880.8099975585938000,46.0334701538085940,662.5349731445312000,4.5444808006286620,54.1393890380859400,52,100,86,78,79,15256,2147754377,2147427328,2148012425,2147874870,2147640109,2147058669,2148258377,2147196141,3392,4,13,63022
1377839474,5810,930.4600219726562000,48.6063613891601560,669.3115844726562000,4.3209362030029300,53.8579597473144500,53,99,84,79,78,15259,2147753060,2147428534,2148016274,2147875218,2147641801,2147055780,2148264192,2147198930,2843,3,13,30897
1377843074,5809,951.8599853515625000,49.5832099914550800,670.8870239257812000,4.2688918113708500,53.7375297546386700,53,99,89,79,80,15254,2147753819,2147424201,2148009252,2147872219,2147640978,2147054774,2148261202,2147195538,174,4,13,1019
1377846674,5811,976.5300292968750000,50.1458587646484400,673.9003295898438000,4.1692700386047360,53.6972007751464840,53,98,86,78,79,15257,2147752685,2147424521,2148013494,2147871570,2147644013,2147057106,2148267117,2147193773,3448,4,13,32999
1377850274,5809,980.7299804687500000,50.3289184570312500,673.8986206054688000,4.1693248748779300,53.6755409240722660,53,99,85,78,79,15258,2147752768,2147425563,2148014784,2147870555,2147640978,2147051136,2148265810,2147197760,3532,4,13,36446
1377853874,5811,988.1599731445312000,50.2977294921875000,674.2921752929688000,4.1563048362731930,53.6865501403808600,52,98,84,78,78,15256,2147755483,2147425920,2148013440,2147874002,2147640777,2147052086,2148269869,2147196361,83,4,13,25337
1377857474,5807,994.2600097656250000,50.3142013549804700,674.7415771484375000,4.1414380073547360,53.6857490539550800,52,96,84,78,79,15248,2147751926,2147425837,2148012333,2147873234,2147642093,2147045732,2148263844,2147195721,491,3,13,15333
1377861074,5810,1000.4099731445312000,50.1454086303710940,674.0327148437500000,4.1648921966552730,53.6989097595214840,52,101,87,78,79,15254,2147753984,2147423963,2148013723,2147875885,2147645714,2147051254,2148266889,2147195702,376,4,13,58900
1377864674,5810,995.0499877929688000,49.8011016845703100,674.1339721679688000,4.1615390777587890,53.7498893737793000,52,97,85,80,78,15253,2147753965,2147423332,2148013293,2147871213,2147646976,2147051785,2148264466,2147195968,415,4,13,33868
1377868274,5810,989.0100097656250000,50.4109497070312500,675.7382202148438000,4.1084561347961430,53.6882705688476560,52,99,84,78,79,15253,2147754587,2147424576,2148012041,2147875428,2147642797,2147057517,2148260461,2147198390,2712,4,13,52497
1377871874,5809,996.8400268554688000,50.8790588378906250,676.2141723632812000,4.0926990509033200,53.6279983520507800,52,97,87,79,79,15075,2147755273,2147424192,2148014710,2147872064,2147642294,2147056896,2148261120,2147195904,3512,4,13,34344
1377875474,5815,993.0900268554688000,50.6277694702148440,676.2310180664062000,4.0921421051025390,53.6649208068847660,53,99,85,78,79,15070,2147754715,2147423588,2148012315,2147874413,2147643721,2147056192,2148264438,2147193563,96,4,13,37176
1377879074,5809,1002.9199829101562000,50.9338417053222660,676.0316162109375000,4.0987429618835450,53.6205596923828100,52,100,83,78,78,15068,2147755318,2147424347,2148015844,2147877348,2147643382,2147057142,2148260187,2147197741,3276,4,13,56183
1377882674,5807,1005.8599853515625000,50.4247589111328100,675.3115844726562000,4.1225762367248535,53.6766815185546900,53,100,87,78,79,15061,2147759259,2147424731,2148014701,2147873234,2147639542,2147054564,2148263122,2147196342,2742,4,13,12695
1377886274,5808,1004.2700195312500000,50.2743301391601560,674.9221191406250000,4.1354641914367680,53.6955413818359400,52,98,82,79,79,15055,2147755922,2147421988,2148014189,2147875520,2147644105,2147055314,2148263003,2147196937,3290,4,13,52416
1377889874,5807,1006.4099731445312000,50.2118492126464840,675.1527709960938000,4.1278319358825680,53.7077293395996100,52,97,82,80,79,15063,2147755766,2147425051,2148013110,2147876397,2147640640,2147052662,2148260626,2147194002,3118,4,13,28612
1377893474,5807,1006.7700195312500000,50.2736816406250000,675.4683837890625000,4.1173858642578125,53.6987609863281250,53,98,83,78,80,15061,2147757650,2147426532,2148015314,2147872256,2147642468,2147051035,2148267547,2147195547,3503,4,13,51229
1377897074,5807,1000.8499755859375000,50.2812500000000000,675.9376220703125000,4.1018581390380860,53.7077407836914060,52,98,86,79,79,15061,2147756214,2147426395,2148015990,2147874523,2147638381,2147056566,2148260105,2147196836,3551,4,13,2967
1377900674,5807,1011.1900024414062000,50.4635887145996100,675.4597778320312000,4.1176719665527340,53.6794281005859400,52,99,83,79,78,15055,2147756105,2147425984,2148013010,2147874806,2147643456,2147055332,2148262226,2147196790,151,4,13,30813
1377904274,5808,1004.5700073242188000,49.7811317443847660,674.4871215820312000,4.1498570442199710,53.7548217773437500,53,99,84,80,80,15055,2147757842,2147426505,2148012388,2147870336,2147643382,2147057453,2148264246,2147197421,287,4,13,376
1377907874,5807,1004.4400024414062000,49.6842308044433600,674.9378051757812000,4.1349449157714840,53.7753105163574200,52,99,86,78,78,15056,2147756562,2147423716,2148015369,2147872813,2147639634,2147057014,2148263734,2147197513,82,4,13,13522
1377911474,5811,1007.3699951171875000,49.8503684997558600,675.2252197265625000,4.1254348754882810,53.7601203918457000,53,101,84,78,80,15057,2147755739,2147426761,2148014427,2147875190,2147640960,2147052077,2148263104,2147196141,311,4,13,58733
1377915074,5807,1019.5499877929688000,50.0634498596191400,674.4890747070312000,4.1497898101806640,53.7150802612304700,52,96,89,78,80,15051,2147755922,2147428507,2148011456,2147874194,2147643648,2147055570,2148263040,2147194011,3387,4,13,3872
1377918674,5808,1007.6699829101562000,49.8960113525390600,674.6588745117188000,4.1441712379455570,53.7445106506347660,52,105,84,79,78,15057,2147755730,2147425142,2148012617,2147876342,2147643538,2147053312,2148262418,2147192384,164,4,13,11288
1377922274,5808,997.7399902343750000,49.7973899841308600,676.1483154296875000,4.0948829650878910,53.7753105163574200,53,98,85,79,79,15055,2147757211,2147428928,2148012662,2147874185,2147641481,2147051200,2148263515,2147198336,577,4,13,32241
1377925874,5809,1004.7700195312500000,49.7693786621093750,675.9937133789062000,4.0999999046325680,53.7785987854003900,52,97,88,79,79,15049,2147754486,2147424877,2148012242,2147876617,2147641435,2147046500,2148264594,2147194514,767,4,13,21643
1377929474,5807,1004.9299926757812000,49.9187088012695300,675.8302001953125000,4.1054100990295410,53.7515182495117200,53,97,86,79,79,15053,2147758656,2147426093,2148012763,2147875794,2147641005,2147053037,2148264886,2147195145,137,4,13,58459
1377933074,5810,1006.0100097656250000,49.6745185852050800,675.2980957031250000,4.1230220794677730,53.7798881530761700,52,101,87,79,80,15052,2147755611,2147426578,2148012251,2147873252,2147642825,2147051428,2148261979,2147197001,3311,4,13,65409
1377936674,5806,1008.9799804687500000,49.6759910583496100,675.1854858398438000,4.1267490386962890,53.7825088500976560,52,98,86,79,78,15054,2147754642,2147426907,2148010560,2147875309,2147642980,2147051858,2148266998,2147196425,3433,4,13,25651
1377940274,5810,1011.5800170898438000,49.6580200195312500,675.0010986328125000,4.1328492164611820,53.7778587341308600,53,98,85,78,79,15050,2147754450,2147422838,2148013056,2147870692,2147639862,2147047204,2148264612,2147195547,406,4,13,47260
1377943874,5809,1003.9699707031250000,50.0771484375000000,676.8463134765625000,4.0717720985412600,53.7446403503418000,52,99,82,78,79,15050,2147754825,2147427483,2148010313,2147874267,2147641133,2147055689,2148266596,2147199177,3591,4,13,56212
1377947474,5807,1008.7500000000000000,49.5916290283203100,676.0828857421875000,4.0970439910888670,53.8039398193359400,51,98,86,79,79,15050,2147753005,2147426221,2148011638,2147874011,2147639515,2147049590,2148260123,2147198198,3132,4,13,30971
1377951074,5809,1014.2899780273438000,50.1865806579589840,675.5770263671875000,4.1137919425964355,53.7175292968750000,52,98,87,77,78,15031,2147754331,2147425773,2148013833,2147874614,2147643794,2147051995,2148263616,2147197659,1212,4,13,36703
1377954674,5808,1014.7000122070312000,49.7855110168457000,675.0526733398438000,4.1311421394348145,53.7649803161621100,52,97,84,78,78,15032,2147755456,2147425709,2148013650,2147872237,2147640320,2147058450,2148267620,2147197988,2174,3,13,42976
1377958274,5810,1010.1699829101562000,49.5459289550781250,675.3068847656250000,4.1227321624755860,53.8028602600097660,52,97,84,79,79,15031,2147755062,2147427776,2148016630,2147874395,2147641828,2147053412,2148263890,2147197220,3136,3,13,11712
1377961874,5811,1003.5499877929688000,50.5000381469726560,676.7025756835938000,4.0765290260314940,53.6868591308593750,52,98,87,80,79,15029,2147754752,2147425225,2148013339,2147876498,2147642889,2147055936,2148267648,2147197385,3443,4,13,16848
1377965474,5809,1009.6199951171875000,50.1700706481933600,677.1356811523438000,4.0621871948242190,53.7354507446289060,53,99,86,77,79,15030,2147752393,2147426075,2148010688,2147874944,2147641645,2147052425,2148263040,2147198866,300,4,13,63366
1377969074,5808,1015.1500244140625000,50.6642417907714840,676.6301269531250000,4.0789299011230470,53.6633987426757800,52,99,84,77,79,15026,2147753161,2147428845,2148012973,2147876260,2147640621,2147056109,2148264228,2147194806,138,4,13,53263
1377972674,5812,1012.6199951171875000,49.6543006896972660,675.8856201171875000,4.1035771369934080,53.7933692932128900,53,97,86,78,80,15024,2147755684,2147423104,2148012160,2147875821,2147639021,2147058678,2148264356,2147196516,3204,3,13,39690
1377976274,5811,1004.5499877929688000,50.1949501037597660,676.4653930664062000,4.0843830108642580,53.7223396301269500,53,98,81,78,79,15026,2147756114,2147425298,2148016155,2147875300,2147639634,2147055195,2148264091,2147192713,173,4,13,48346
1377978956,5805,1006.3200073242188000,50.3702583312988300,676.5372924804688000,4.0820031166076660,53.6973495483398440,52,99,88,79,79,15229,2147754240,2147427227,2148012800,2147874916,2147643712,2147063387,2148259977,2147196342,313,4,13,36532
